Regional Weather Roundup
Issued by NWS Raleigh/Durham, NC

Current Version | Previous Version | Graphics & Text | Print | Product List | Glossary On
Versions: 1 2 3 4 5 6 7 8 9 10 11 12 13 14 15 16 17 18 19 20 21 22 23 24 25 26 27 28 29 30 31 32 33 34 35 36 37 38 39 40 41 42 43 44 45 46
000
ASUS42 KRAH 100310
RWRRAH
NORTH CAROLINA WEATHER ROUNDUP
NATIONAL WEATHER SERVICE RALEIGH NC
1000 PM EST FRI DEC 09 2022

NOTE: "FAIR" INDICATES FEW OR NO CLOUDS BELOW 12,000 FEET WITH NO
SIGNIFICANT WEATHER AND/OR OBSTRUCTIONS TO VISIBILITY.

NCZ001-053-055-056-065-067-100400-
WESTERN NORTH CAROLINA

CITY           SKY/WX    TMP DP  RH WIND       PRES   REMARKS
ASHEVILLE      LGT RAIN  46  45  96 S6        30.18S
JEFFERSON      FOG       40  40 100 SE3       30.18S VSB 1/4
MORGANTON      CLOUDY    49  48  98 CALM      30.24S
HICKORY        CLOUDY    47  47 100 CALM      30.21R
WILKESBORO     CLOUDY    43  43 100 CALM      30.26F FOG
RUTHERFORDTON  RAIN      46  46 100 CALM      30.22S
MOUNT AIRY     CLOUDY    46  42  87 CALM      30.24R
BOONE          FOG       42  42 100 E3        30.18R VSB 1
$$

NCZ021-022-025-041-071-084-088-100400-
CENTRAL NORTH CAROLINA

CITY           SKY/WX    TMP DP  RH WIND       PRES   REMARKS
CHARLOTTE      LGT RAIN  50  47  89 VRB3      30.21R FOG
GREENSBORO     CLOUDY    47  41  80 E3        30.22R
WINSTON-SALEM  CLOUDY    47  44  90 NE3       30.23R
RALEIGH-DURHAM CLOUDY    47  39  74 E7        30.23S
FORT BRAGG     CLOUDY    49  38  66 E6        30.21R
FAYETTEVILLE   CLOUDY    50  39  66 NE5       30.22R
BURLINGTON     CLOUDY    47  38  71 E6        30.22S
ROXBORO        CLOUDY    45  37  76 NE6       30.25S
HENDERSON      CLOUDY    41  38  89 CALM      30.23F
LOUISBURG      PTCLDY    39  37  93 CALM      30.25F
LAURINBURG     CLOUDY    51  39  63 E9        30.22S
$$

NCZ011-015-027-028-043-044-047-080-103-100400-
NORTHEASTERN NORTH CAROLINA

CITY           SKY/WX    TMP DP  RH WIND       PRES   REMARKS
ROCKY MT-WILSO PTCLDY    45  36  70 CALM      30.25R
GREENVILLE     CLOUDY    46  41  81 NE3       30.24S
ELIZABETH CITY CLEAR     44  37  76 N10       30.25R
MANTEO         CLOUDY    49  39  67 NE9G20    30.22R
CAPE HATTERAS  CLEAR     50  41  71 NE8G20    30.18S
$$

NCZ078-087-090-091-093-098-101-100400-
SOUTHEASTERN NORTH CAROLINA

CITY           SKY/WX    TMP DP  RH WIND       PRES   REMARKS
LUMBERTON      CLOUDY    50  40  68 NE8       30.21F
GOLDSBORO      CLEAR     44  37  76 NW5       30.20R
KINSTON        CLEAR     41  38  89 CALM      30.24R
KENANSVILLE    CLOUDY    45  41  87 NE3       30.23S
NEW BERN       CLEAR     44  41  89 NE7       30.23S
CHERRY POINT   PTCLDY    47  41  80 NE12      30.22S
BEAUFORT       CLEAR     47  42  83 N8        30.21R
JACKSONVILLE   CLOUDY    47  42  83 NE7       30.21S
WILMINGTON     MOCLDY    46  42  86 NE3       30.21R
$$




USA.gov is the U.S. government's official web portal to all federal, state and local government web resources and services.